Time,TemperatureF,DewpointF,PressureIn,WindDirection,WindDirectionDegrees,WindSpeedMPH,WindSpeedGustMPH,Humidity,HourlyPrecipIn,Conditions,Clouds,dailyrainin,SoftwareType,DateUTC
2013-03-11 00:00:00,45.0,42.2,30.25,South,185,0.0,1.0,90,0.00,CLR,,0.00,WeatherDisplay:10.37,2013-03-11 04:00:00,
2013-03-11 00:05:00,45.0,42.2,30.25,South,188,0.0,0.0,90,0.00,CLR,,0.00,WeatherDisplay:10.37,2013-03-11 04:05:00,
2013-03-11 00:10:00,44.8,42.3,30.25,South,188,0.0,0.0,91,0.00,CLR,,0.00,WeatherDisplay:10.37,2013-03-11 04:10:00,
2013-03-11 00:15:00,44.8,42.3,30.25,South,188,0.0,0.0,91,0.00,CLR,,0.00,WeatherDisplay:10.37,2013-03-11 04:15:00,
2013-03-11 00:20:00,44.8,42.3,30.24,South,188,0.0,0.0,91,0.00,CLR,,0.00,WeatherDisplay:10.37,2013-03-11 04:20:00,
2013-03-11 00:25:00,44.8,42.3,30.24,SSE,163,0.0,2.0,91,0.00,CLR,,0.00,WeatherDisplay:10.37,2013-03-11 04:25:00,
2013-03-11 00:30:00,44.9,42.7,30.24,South,171,0.0,1.0,92,0.00,CLR,,0.00,WeatherDisplay:10.37,2013-03-11 04:30:00,
2013-03-11 00:35:00,45.0,42.5,30.24,SSE,147,0.0,2.0,91,0.00,CLR,,0.00,WeatherDisplay:10.37,2013-03-11 04:35:00,
2013-03-11 00:40:00,45.0,42.8,30.23,ESE,120,0.0,1.0,92,0.00,CLR,,0.00,WeatherDisplay:10.37,2013-03-11 04:40:00,
2013-03-11 00:50:00,45.3,43.4,30.23,NW,323,0.0,2.0,93,0.00,CLR,,0.00,WeatherDisplay:10.37,2013-03-11 04:50:00,
2013-03-11 00:55:00,45.3,43.4,30.23,NW,323,0.0,0.0,93,0.00,CLR,,0.00,WeatherDisplay:10.37,2013-03-11 04:55:00,
2013-03-11 01:00:00,45.5,43.9,30.23,NNW,340,0.0,2.0,94,0.00,CLR,,0.00,WeatherDisplay:10.37,2013-03-11 05:00:00,
2013-03-11 01:05:00,45.7,44.3,30.23,North,355,0.0,2.0,95,0.00,CLR,,0.00,WeatherDisplay:10.37,2013-03-11 05:05:00,
2013-03-11 01:10:00,45.7,44.3,30.23,NNW,335,0.0,0.0,95,0.00,CLR,,0.00,WeatherDisplay:10.37,2013-03-11 05:10:00,
2013-03-11 01:15:00,45.7,44.3,30.23,NW,309,0.0,0.0,95,0.00,CLR,,0.00,WeatherDisplay:10.37,2013-03-11 05:15:00,
2013-03-11 01:20:00,45.7,44.3,30.23,WNW,285,0.0,0.0,95,0.00,CLR,,0.00,WeatherDisplay:10.37,2013-03-11 05:20:00,
2013-03-11 01:25:00,45.4,44.1,30.23,WNW,284,0.0,2.0,95,0.00,CLR,,0.00,WeatherDisplay:10.37,2013-03-11 05:25:00,
2013-03-11 01:30:00,45.2,43.8,30.23,NW,307,1.0,2.0,95,0.00,CLR,,0.00,WeatherDisplay:10.37,2013-03-11 05:30:00,
2013-03-11 01:35:00,45.1,44.1,30.23,NW,323,0.0,2.0,96,0.00,CLR,,0.00,WeatherDisplay:10.37,2013-03-11 05:35:00,
2013-03-11 01:40:00,45.1,44.3,30.23,NW,323,0.0,0.0,97,0.00,CLR,,0.00,WeatherDisplay:10.37,2013-03-11 05:40:00,
2013-03-11 01:45:00,45.0,44.2,30.24,NW,323,0.0,0.0,97,0.00,CLR,,0.00,WeatherDisplay:10.37,2013-03-11 05:45:00,
2013-03-11 01:50:00,44.9,44.1,30.24,NW,323,0.0,0.0,97,0.00,CLR,,0.00,WeatherDisplay:10.37,2013-03-11 05:50:00,
2013-03-11 01:55:00,44.8,44.0,30.23,NW,323,0.0,0.0,97,0.00,CLR,,0.00,WeatherDisplay:10.37,2013-03-11 05:55:00,
2013-03-11 02:00:00,44.6,44.1,30.24,NW,323,0.0,0.0,98,0.00,CLR,,0.00,WeatherDisplay:10.37,2013-03-11 06:00:00,
2013-03-11 02:05:00,44.6,44.1,30.23,NW,323,0.0,0.0,98,0.00,CLR,,0.00,WeatherDisplay:10.37,2013-03-11 06:05:00,
2013-03-11 02:10:00,44.6,44.1,30.23,NW,323,0.0,0.0,98,0.00,CLR,,0.00,WeatherDisplay:10.37,2013-03-11 06:10:00,
2013-03-11 02:20:00,44.6,44.3,30.23,North,349,1.0,2.0,99,0.00,CLR,,0.00,WeatherDisplay:10.37,2013-03-11 06:20:00,
2013-03-11 02:25:00,45.0,44.7,30.22,North,8,0.0,2.0,99,0.00,CLR,,0.00,WeatherDisplay:10.37,2013-03-11 06:25:00,
2013-03-11 02:30:00,45.1,44.8,30.22,WNW,302,0.0,2.0,99,0.00,CLR,,0.00,WeatherDisplay:10.37,2013-03-11 06:30:00,
2013-03-11 02:35:00,45.1,44.9,30.22,NNW,330,0.0,2.0,99,0.00,CLR,,0.00,WeatherDisplay:10.37,2013-03-11 06:35:00,
2013-03-11 02:40:00,45.3,45.1,30.22,NNW,344,0.0,2.0,99,0.00,CLR,,0.00,WeatherDisplay:10.37,2013-03-11 06:40:00,
2013-03-11 02:45:00,45.3,45.1,30.22,North,349,1.0,2.0,99,0.00,CLR,,0.00,WeatherDisplay:10.37,2013-03-11 06:45:00,
2013-03-11 02:50:00,45.3,45.1,30.22,NNW,337,0.0,2.0,99,0.00,CLR,,0.00,WeatherDisplay:10.37,2013-03-11 06:50:00,
2013-03-11 02:55:00,45.3,45.1,30.22,NNW,327,1.0,2.0,99,0.00,CLR,,0.00,WeatherDisplay:10.37,2013-03-11 06:55:00,
2013-03-11 03:00:00,45.3,44.8,30.22,North,349,0.0,2.0,98,0.00,CLR,,0.00,WeatherDisplay:10.37,2013-03-11 07:00:00,
2013-03-11 03:05:00,45.3,44.8,30.22,North,8,0.0,1.0,98,0.00,CLR,,0.00,WeatherDisplay:10.37,2013-03-11 07:05:00,
2013-03-11 03:10:00,45.5,44.7,30.21,North,8,0.0,1.0,97,0.00,CLR,,0.00,WeatherDisplay:10.37,2013-03-11 07:10:00,
2013-03-11 03:15:00,45.5,44.7,30.21,North,355,1.0,2.0,97,0.00,CLR,,0.00,WeatherDisplay:10.37,2013-03-11 07:15:00,
2013-03-11 03:20:00,45.4,44.6,30.20,NNW,344,1.0,2.0,97,0.00,CLR,,0.00,WeatherDisplay:10.37,2013-03-11 07:20:00,
2013-03-11 03:25:00,45.3,44.5,30.20,North,7,1.0,2.0,97,0.00,CLR,,0.00,WeatherDisplay:10.37,2013-03-11 07:25:00,
2013-03-11 03:30:00,45.5,44.7,30.19,North,8,0.0,2.0,97,0.00,CLR,,0.00,WeatherDisplay:10.37,2013-03-11 07:30:00,
2013-03-11 03:35:00,45.6,45.1,30.19,North,4,1.0,2.0,98,0.00,CLR,,0.00,WeatherDisplay:10.37,2013-03-11 07:35:00,
2013-03-11 03:40:00,45.5,45.0,30.19,North,359,1.0,2.0,98,0.00,CLR,,0.00,WeatherDisplay:10.37,2013-03-11 07:40:00,
2013-03-11 03:45:00,45.5,45.0,30.19,NNE,14,0.0,2.0,98,0.00,CLR,,0.00,WeatherDisplay:10.37,2013-03-11 07:45:00,
2013-03-11 03:50:00,45.4,44.9,30.18,North,355,0.0,1.0,98,0.00,CLR,,0.00,WeatherDisplay:10.37,2013-03-11 07:50:00,
2013-03-11 03:55:00,45.3,45.1,30.18,NNW,343,1.0,2.0,99,0.00,CLR,,0.00,WeatherDisplay:10.37,2013-03-11 07:55:00,
2013-03-11 04:00:00,45.3,45.1,30.18,NNW,335,1.0,2.0,99,0.00,CLR,,0.00,WeatherDisplay:10.37,2013-03-11 08:00:00,
2013-03-11 04:05:00,45.3,45.1,30.18,NNW,328,1.0,2.0,99,0.00,CLR,,0.00,WeatherDisplay:10.37,2013-03-11 08:05:00,
2013-03-11 04:10:00,45.1,44.9,30.17,NW,323,0.0,2.0,99,0.00,CLR,,0.00,WeatherDisplay:10.37,2013-03-11 08:10:00,
2013-03-11 04:20:00,45.1,44.9,30.17,NW,323,0.0,0.0,99,0.00,CLR,,0.00,WeatherDisplay:10.37,2013-03-11 08:20:00,
2013-03-11 04:25:00,45.0,44.7,30.18,NNW,328,0.0,2.0,99,0.00,CLR,,0.00,WeatherDisplay:10.37,2013-03-11 08:25:00,
2013-03-11 04:30:00,44.9,44.6,30.18,NW,326,0.0,2.0,99,0.00,CLR,,0.00,WeatherDisplay:10.37,2013-03-11 08:30:00,
2013-03-11 04:35:00,44.8,44.5,30.18,NW,323,0.0,1.0,99,0.00,CLR,,0.00,WeatherDisplay:10.37,2013-03-11 08:35:00,
2013-03-11 04:40:00,44.8,44.5,30.18,NW,323,1.0,2.0,99,0.00,CLR,,0.00,WeatherDisplay:10.37,2013-03-11 08:40:00,
2013-03-11 04:45:00,44.8,44.5,30.18,NW,323,0.0,2.0,99,0.00,CLR,,0.00,WeatherDisplay:10.37,2013-03-11 08:45:00,
2013-03-11 04:50:00,44.8,44.5,30.17,NW,323,0.0,0.0,99,0.00,CLR,,0.00,WeatherDisplay:10.37,2013-03-11 08:50:00,
2013-03-11 04:55:00,45.0,44.7,30.17,North,349,0.0,1.0,99,0.00,CLR,,0.00,WeatherDisplay:10.37,2013-03-11 08:55:00,
2013-03-11 05:00:00,45.1,44.9,30.17,North,356,0.0,2.0,99,0.00,CLR,,0.00,WeatherDisplay:10.37,2013-03-11 09:00:00,
2013-03-11 05:05:00,45.1,44.9,30.16,NNE,17,1.0,2.0,99,0.00,CLR,,0.00,WeatherDisplay:10.37,2013-03-11 09:05:00,
2013-03-11 05:10:00,45.3,45.1,30.16,NE,45,1.0,2.0,99,0.00,CLR,,0.00,WeatherDisplay:10.37,2013-03-11 09:10:00,
2013-03-11 05:15:00,45.3,45.1,30.16,NNE,21,0.0,2.0,99,0.00,CLR,,0.00,WeatherDisplay:10.37,2013-03-11 09:15:00,
2013-03-11 05:20:00,45.3,45.1,30.16,NE,55,0.0,1.0,99,0.00,CLR,,0.00,WeatherDisplay:10.37,2013-03-11 09:20:00,
2013-03-11 05:25:00,45.1,44.9,30.16,North,354,0.0,2.0,99,0.00,CLR,,0.00,WeatherDisplay:10.37,2013-03-11 09:25:00,
2013-03-11 05:30:00,45.1,44.9,30.17,NNW,339,0.0,2.0,99,0.00,CLR,,0.00,WeatherDisplay:10.37,2013-03-11 09:30:00,
2013-03-11 05:35:00,45.1,44.9,30.17,SSE,162,0.0,2.0,99,0.00,CLR,,0.00,WeatherDisplay:10.37,2013-03-11 09:35:00,
2013-03-11 05:40:00,45.1,44.9,30.17,SE,139,0.0,2.0,99,0.00,CLR,,0.00,WeatherDisplay:10.37,2013-03-11 09:40:00,
2013-03-11 05:45:00,45.1,44.9,30.17,NNE,25,0.0,2.0,99,0.00,CLR,,0.00,WeatherDisplay:10.37,2013-03-11 09:45:00,
2013-03-11 05:50:00,45.1,44.9,30.17,NNW,327,0.0,2.0,99,0.00,CLR,,0.00,WeatherDisplay:10.37,2013-03-11 09:50:00,
2013-03-11 05:55:00,45.3,45.1,30.17,NNW,330,0.0,2.0,99,0.00,CLR,,0.00,WeatherDisplay:10.37,2013-03-11 09:55:00,
2013-03-11 06:00:00,45.6,45.3,30.17,NE,48,0.0,2.0,99,0.00,CLR,,0.00,WeatherDisplay:10.37,2013-03-11 10:00:00,
2013-03-11 06:05:00,45.9,45.6,30.17,NNE,26,0.0,1.0,99,0.00,CLR,,0.00,WeatherDisplay:10.37,2013-03-11 10:05:00,
2013-03-11 06:10:00,46.0,45.8,30.17,NNW,329,0.0,1.0,99,0.00,CLR,,0.00,WeatherDisplay:10.37,2013-03-11 10:10:00,
2013-03-11 06:15:00,46.2,46.0,30.16,NNW,328,0.0,2.0,99,0.00,CLR,,0.00,WeatherDisplay:10.37,2013-03-11 10:15:00,
2013-03-11 06:20:00,46.6,46.3,30.16,NNW,328,1.0,2.0,99,0.00,CLR,,0.00,WeatherDisplay:10.37,2013-03-11 10:20:00,
2013-03-11 06:25:00,46.9,46.7,30.17,NW,318,0.0,2.0,99,0.00,CLR,,0.00,WeatherDisplay:10.37,2013-03-11 10:25:00,
2013-03-11 06:30:00,47.1,46.9,30.17,NW,314,0.0,2.0,99,0.00,CLR,,0.00,WeatherDisplay:10.37,2013-03-11 10:30:00,
2013-03-11 06:35:00,47.1,46.9,30.16,WNW,293,1.0,2.0,99,0.00,CLR,,0.00,WeatherDisplay:10.37,2013-03-11 10:35:00,
2013-03-11 06:40:00,47.5,47.2,30.17,West,267,0.0,2.0,99,0.00,CLR,,0.00,WeatherDisplay:10.37,2013-03-11 10:40:00,
2013-03-11 06:45:00,47.5,47.3,30.16,North,0,0.0,2.0,99,0.00,CLR,,0.00,WeatherDisplay:10.37,2013-03-11 10:45:00,
2013-03-11 06:50:00,47.8,47.6,30.16,SE,146,0.0,2.0,99,0.00,CLR,,0.00,WeatherDisplay:10.37,2013-03-11 10:50:00,
2013-03-11 06:55:00,48.0,47.8,30.16,SSW,195,0.0,1.0,99,0.00,CLR,,0.00,WeatherDisplay:10.37,2013-03-11 10:55:00,
2013-03-11 07:00:00,48.2,47.9,30.16,SSW,213,0.0,2.0,99,0.00,CLR,,0.00,WeatherDisplay:10.37,2013-03-11 11:00:00,
2013-03-11 07:05:00,48.2,47.9,30.15,SSW,201,0.0,2.0,99,0.00,CLR,,0.00,WeatherDisplay:10.37,2013-03-11 11:05:00,
2013-03-11 07:10:00,48.9,48.7,30.16,South,191,0.0,2.0,99,0.00,CLR,,0.00,WeatherDisplay:10.37,2013-03-11 11:10:00,
2013-03-11 07:20:00,49.6,49.4,30.16,South,189,0.0,2.0,99,0.00,CLR,,0.00,WeatherDisplay:10.37,2013-03-11 11:20:00,
2013-03-11 07:25:00,49.8,49.5,30.15,SSW,192,0.0,2.0,99,0.00,CLR,,0.00,WeatherDisplay:10.37,2013-03-11 11:25:00,
2013-03-11 07:30:00,49.9,49.7,30.15,South,184,1.0,3.0,99,0.00,CLR,,0.00,WeatherDisplay:10.37,2013-03-11 11:30:00,
2013-03-11 07:35:00,50.0,49.7,30.16,South,177,0.0,3.0,99,0.00,CLR,,0.00,WeatherDisplay:10.37,2013-03-11 11:35:00,
2013-03-11 07:40:00,50.4,50.1,30.16,SSE,166,1.0,3.0,99,0.00,CLR,,0.00,WeatherDisplay:10.37,2013-03-11 11:40:00,
2013-03-11 07:45:00,50.7,50.4,30.16,South,185,0.0,2.0,99,0.00,CLR,,0.00,WeatherDisplay:10.37,2013-03-11 11:45:00,
2013-03-11 07:55:00,50.7,50.4,30.16,SSW,192,0.0,2.0,99,0.00,CLR,,0.00,WeatherDisplay:10.37,2013-03-11 11:55:00,
2013-03-11 08:00:00,50.9,50.6,30.15,South,170,0.0,2.0,99,0.00,CLR,,0.00,WeatherDisplay:10.37,2013-03-11 12:00:00,
2013-03-11 08:05:00,50.9,50.6,30.15,South,169,0.0,2.0,99,0.00,CLR,,0.00,WeatherDisplay:10.37,2013-03-11 12:05:00,
2013-03-11 08:10:00,51.1,50.8,30.16,South,186,0.0,2.0,99,0.00,CLR,,0.00,WeatherDisplay:10.37,2013-03-11 12:10:00,
2013-03-11 08:15:00,51.3,51.1,30.16,South,176,0.0,3.0,99,0.00,CLR,,0.00,WeatherDisplay:10.37,2013-03-11 12:15:00,
2013-03-11 08:20:00,51.6,51.3,30.16,SSW,203,0.0,2.0,99,0.00,CLR,,0.00,WeatherDisplay:10.37,2013-03-11 12:20:00,
2013-03-11 08:25:00,51.8,51.5,30.16,SSE,165,0.0,1.0,99,0.00,CLR,,0.00,WeatherDisplay:10.37,2013-03-11 12:25:00,
2013-03-11 08:35:00,52.9,52.7,30.16,SW,224,0.0,2.0,99,0.00,CLR,,0.00,WeatherDisplay:10.37,2013-03-11 12:35:00,
2013-03-11 08:45:00,54.5,54.2,30.16,South,178,0.0,2.0,99,0.00,CLR,,0.00,WeatherDisplay:10.37,2013-03-11 12:45:00,
2013-03-11 08:55:00,56.1,55.8,30.16,WNW,301,0.0,2.0,99,0.00,CLR,,0.00,WeatherDisplay:10.37,2013-03-11 12:55:00,
2013-03-11 09:05:00,57.5,57.2,30.16,SE,143,0.0,3.0,99,0.00,CLR,,0.00,WeatherDisplay:10.37,2013-03-11 13:05:00,
2013-03-11 09:15:00,58.4,58.2,30.16,NE,48,1.0,3.0,99,0.00,CLR,,0.00,WeatherDisplay:10.37,2013-03-11 13:15:00,
2013-03-11 09:20:00,58.6,58.3,30.16,ESE,113,0.0,2.0,99,0.00,CLR,,0.00,WeatherDisplay:10.37,2013-03-11 13:20:00,
2013-03-11 09:25:00,58.6,58.4,30.16,South,187,0.0,4.0,99,0.00,CLR,,0.00,WeatherDisplay:10.37,2013-03-11 13:25:00,
2013-03-11 09:30:00,58.8,58.5,30.15,SSE,153,1.0,4.0,99,0.00,CLR,,0.00,WeatherDisplay:10.37,2013-03-11 13:30:00,
2013-03-11 09:40:00,59.7,59.4,30.15,SE,139,1.0,4.0,99,0.00,CLR,,0.00,WeatherDisplay:10.37,2013-03-11 13:40:00,
2013-03-11 09:50:00,60.8,59.9,30.15,South,182,0.0,2.0,97,0.00,CLR,,0.00,WeatherDisplay:10.37,2013-03-11 13:50:00,
2013-03-11 09:55:00,61.5,60.3,30.15,SSW,192,0.0,2.0,96,0.00,CLR,,0.00,WeatherDisplay:10.37,2013-03-11 13:55:00,
2013-03-11 10:00:00,62.0,60.3,30.14,SSE,152,1.0,4.0,94,0.00,CLR,,0.00,WeatherDisplay:10.37,2013-03-11 14:00:00,
2013-03-11 10:05:00,62.6,59.9,30.14,SE,143,1.0,5.0,91,0.00,CLR,,0.00,WeatherDisplay:10.37,2013-03-11 14:05:00,
2013-03-11 10:15:00,64.2,60.2,30.14,SSE,164,1.0,5.0,87,0.00,CLR,,0.00,WeatherDisplay:10.37,2013-03-11 14:15:00,
2013-03-11 10:20:00,64.9,60.0,30.14,SSE,162,1.0,5.0,84,0.00,CLR,,0.00,WeatherDisplay:10.37,2013-03-11 14:20:00,
2013-03-11 10:25:00,65.6,59.9,30.14,SSW,200,1.0,5.0,82,0.00,CLR,,0.00,WeatherDisplay:10.37,2013-03-11 14:25:00,
2013-03-11 10:30:00,66.2,59.9,30.14,SSW,200,1.0,4.0,80,0.00,CLR,,0.00,WeatherDisplay:10.37,2013-03-11 14:30:00,
2013-03-11 10:35:00,66.6,59.2,30.13,SSE,152,2.0,6.0,77,0.00,CLR,,0.00,WeatherDisplay:10.37,2013-03-11 14:35:00,
2013-03-11 10:40:00,66.9,58.7,30.14,SSE,148,1.0,6.0,75,0.00,CLR,,0.00,WeatherDisplay:10.37,2013-03-11 14:40:00,
2013-03-11 10:45:00,66.8,58.6,30.13,SSE,161,1.0,8.0,75,0.00,CLR,,0.00,WeatherDisplay:10.37,2013-03-11 14:45:00,
2013-03-11 10:50:00,66.9,58.4,30.14,SSE,153,1.0,6.0,74,0.00,CLR,,0.00,WeatherDisplay:10.37,2013-03-11 14:50:00,
2013-03-11 11:00:00,68.0,58.6,30.14,SSE,154,2.0,4.0,72,0.00,CLR,,0.00,WeatherDisplay:10.37,2013-03-11 15:00:00,
2013-03-11 11:05:00,68.4,58.6,30.14,South,184,1.0,6.0,71,0.00,CLR,,0.00,WeatherDisplay:10.37,2013-03-11 15:05:00,
2013-03-11 11:15:00,69.0,58.4,30.13,SSW,205,1.0,5.0,69,0.00,CLR,,0.00,WeatherDisplay:10.37,2013-03-11 15:15:00,
2013-03-11 11:20:00,70.1,58.2,30.13,ESE,118,2.0,8.0,66,0.00,CLR,,0.00,WeatherDisplay:10.37,2013-03-11 15:20:00,
2013-03-11 11:25:00,70.7,57.0,30.13,SSE,147,3.0,8.0,62,0.00,CLR,,0.00,WeatherDisplay:10.37,2013-03-11 15:25:00,
2013-03-11 11:30:00,70.2,55.7,30.13,South,179,3.0,9.0,60,0.00,CLR,,0.00,WeatherDisplay:10.37,2013-03-11 15:30:00,
2013-03-11 11:35:00,69.6,55.1,30.13,SSE,152,2.0,7.0,60,0.00,CLR,,0.00,WeatherDisplay:10.37,2013-03-11 15:35:00,
2013-03-11 11:40:00,69.3,55.7,30.13,SSE,151,1.0,9.0,62,0.00,CLR,,0.00,WeatherDisplay:10.37,2013-03-11 15:40:00,
2013-03-11 11:45:00,69.5,56.3,30.13,SSE,155,2.0,6.0,63,0.00,CLR,,0.00,WeatherDisplay:10.37,2013-03-11 15:45:00,
2013-03-11 11:50:00,69.8,56.1,30.13,East,100,2.0,7.0,62,0.00,CLR,,0.00,WeatherDisplay:10.37,2013-03-11 15:50:00,
2013-03-11 12:00:00,70.5,55.5,30.13,South,188,2.0,8.0,59,0.00,CLR,,0.00,WeatherDisplay:10.37,2013-03-11 16:00:00,
2013-03-11 12:10:00,72.2,56.1,30.13,South,181,2.0,10.0,57,0.00,CLR,,0.00,WeatherDisplay:10.37,2013-03-11 16:10:00,
2013-03-11 12:15:00,73.3,54.6,30.13,South,185,2.0,10.0,52,0.00,CLR,,0.00,WeatherDisplay:10.37,2013-03-11 16:15:00,
2013-03-11 12:20:00,73.2,51.7,30.12,South,182,6.0,12.0,47,0.00,CLR,,0.00,WeatherDisplay:10.37,2013-03-11 16:20:00,
2013-03-11 12:25:00,72.9,52.0,30.12,SSW,198,3.0,12.0,48,0.00,CLR,,0.00,WeatherDisplay:10.37,2013-03-11 16:25:00,
2013-03-11 12:30:00,72.9,51.4,30.12,South,188,5.0,13.0,47,0.00,CLR,,0.00,WeatherDisplay:10.37,2013-03-11 16:30:00,
2013-03-11 12:40:00,73.8,51.1,30.12,South,190,5.0,11.0,45,0.00,CLR,,0.00,WeatherDisplay:10.37,2013-03-11 16:40:00,
2013-03-11 12:45:00,74.5,51.7,30.11,SSW,196,3.0,9.0,45,0.00,CLR,,0.00,WeatherDisplay:10.37,2013-03-11 16:45:00,
2013-03-11 12:50:00,75.0,52.2,30.11,WSW,256,5.0,9.0,45,0.00,CLR,,0.00,WeatherDisplay:10.37,2013-03-11 16:50:00,
2013-03-11 12:55:00,75.0,51.6,30.11,SW,235,3.0,10.0,44,0.00,CLR,,0.00,WeatherDisplay:10.37,2013-03-11 16:55:00,
2013-03-11 13:05:00,74.3,51.0,30.11,SSE,168,5.0,9.0,44,0.00,CLR,,0.00,WeatherDisplay:10.37,2013-03-11 17:05:00,
2013-03-11 13:10:00,73.1,50.5,30.12,South,178,7.0,13.0,45,0.00,CLR,,0.00,WeatherDisplay:10.37,2013-03-11 17:10:00,
2013-03-11 13:15:00,72.3,51.5,30.11,SSW,200,3.0,13.0,48,0.00,CLR,,0.00,WeatherDisplay:10.37,2013-03-11 17:15:00,
2013-03-11 13:20:00,72.1,51.9,30.11,SSW,202,5.0,9.0,49,0.00,CLR,,0.00,WeatherDisplay:10.37,2013-03-11 17:20:00,
2013-03-11 13:25:00,73.5,53.1,30.11,South,177,2.0,8.0,49,0.00,CLR,,0.00,WeatherDisplay:10.37,2013-03-11 17:25:00,
2013-03-11 13:35:00,73.9,51.8,30.11,South,173,3.0,11.0,46,0.00,CLR,,0.00,WeatherDisplay:10.37,2013-03-11 17:35:00,
2013-03-11 13:40:00,72.7,51.9,30.10,South,191,3.0,13.0,48,0.00,CLR,,0.00,WeatherDisplay:10.37,2013-03-11 17:40:00,
2013-03-11 13:50:00,71.2,53.2,30.10,SSW,199,5.0,11.0,53,0.00,CLR,,0.00,WeatherDisplay:10.37,2013-03-11 17:50:00,
2013-03-11 14:00:00,70.7,54.7,30.09,SSW,201,2.0,9.0,57,0.00,CLR,,0.00,WeatherDisplay:10.37,2013-03-11 18:00:00,
2013-03-11 14:05:00,70.6,54.2,30.08,South,190,3.0,9.0,56,0.00,CLR,,0.00,WeatherDisplay:10.37,2013-03-11 18:05:00,
2013-03-11 14:10:00,70.7,54.7,30.08,SSW,202,5.0,10.0,57,0.00,CLR,,0.00,WeatherDisplay:10.37,2013-03-11 18:10:00,
2013-03-11 14:15:00,70.2,54.2,30.09,SW,233,2.0,18.0,57,0.00,CLR,,0.00,WeatherDisplay:10.37,2013-03-11 18:15:00,
2013-03-11 14:20:00,70.0,53.6,30.08,SSW,200,3.0,8.0,56,0.00,CLR,,0.00,WeatherDisplay:10.37,2013-03-11 18:20:00,
2013-03-11 14:25:00,70.2,54.2,30.08,SSW,195,1.0,8.0,57,0.00,CLR,,0.00,WeatherDisplay:10.37,2013-03-11 18:25:00,
2013-03-11 14:35:00,70.7,53.3,30.07,South,180,2.0,10.0,54,0.00,CLR,,0.00,WeatherDisplay:10.37,2013-03-11 18:35:00,
2013-03-11 14:45:00,71.5,54.0,30.07,South,178,1.0,11.0,54,0.00,CLR,,0.00,WeatherDisplay:10.37,2013-03-11 18:45:00,
2013-03-11 14:50:00,72.2,53.6,30.06,SSW,195,3.0,10.0,52,0.00,CLR,,0.00,WeatherDisplay:10.37,2013-03-11 18:50:00,
2013-03-11 14:55:00,72.7,54.1,30.06,SSW,199,2.0,8.0,52,0.00,CLR,,0.00,WeatherDisplay:10.37,2013-03-11 18:55:00,
2013-03-11 15:00:00,73.2,52.9,30.06,SSW,205,5.0,14.0,49,0.00,CLR,,0.00,WeatherDisplay:10.37,2013-03-11 19:00:00,
2013-03-11 15:05:00,72.3,52.1,30.06,SSW,204,3.0,14.0,49,0.00,CLR,,0.00,WeatherDisplay:10.37,2013-03-11 19:05:00,
2013-03-11 15:15:00,72.1,52.5,30.06,SW,220,3.0,13.0,50,0.00,CLR,,0.00,WeatherDisplay:10.37,2013-03-11 19:15:00,
2013-03-11 15:20:00,71.6,53.0,30.06,SSW,202,5.0,11.0,52,0.00,CLR,,0.00,WeatherDisplay:10.37,2013-03-11 19:20:00,
2013-03-11 15:25:00,71.2,52.7,30.06,South,188,5.0,11.0,52,0.00,CLR,,0.00,WeatherDisplay:10.37,2013-03-11 19:25:00,
2013-03-11 15:35:00,70.2,55.7,30.05,SSW,204,3.0,11.0,60,0.00,CLR,,0.00,WeatherDisplay:10.37,2013-03-11 19:35:00,
2013-03-11 15:40:00,70.0,55.9,30.04,SSW,213,3.0,10.0,61,0.00,CLR,,0.00,WeatherDisplay:10.37,2013-03-11 19:40:00,
2013-03-11 15:45:00,70.0,56.4,30.04,SSW,208,2.0,13.0,62,0.00,CLR,,0.00,WeatherDisplay:10.37,2013-03-11 19:45:00,
2013-03-11 15:50:00,70.0,56.4,30.04,SSW,192,5.0,13.0,62,0.00,CLR,,0.00,WeatherDisplay:10.37,2013-03-11 19:50:00,
2013-03-11 15:55:00,70.2,56.5,30.04,South,190,1.0,7.0,62,0.00,CLR,,0.00,WeatherDisplay:10.37,2013-03-11 19:55:00,
2013-03-11 16:00:00,70.5,56.9,30.04,South,189,1.0,6.0,62,0.00,CLR,,0.00,WeatherDisplay:10.37,2013-03-11 20:00:00,
2013-03-11 16:05:00,70.5,56.0,30.03,SSW,194,2.0,8.0,60,0.00,CLR,,0.00,WeatherDisplay:10.37,2013-03-11 20:05:00,
2013-03-11 16:10:00,70.2,56.6,30.03,SSW,198,2.0,10.0,62,0.00,CLR,,0.00,WeatherDisplay:10.37,2013-03-11 20:10:00,
2013-03-11 16:15:00,70.2,57.0,30.03,SSW,194,1.0,6.0,63,0.00,CLR,,0.00,WeatherDisplay:10.37,2013-03-11 20:15:00,
2013-03-11 16:25:00,70.3,56.7,30.03,South,191,3.0,12.0,62,0.00,CLR,,0.00,WeatherDisplay:10.37,2013-03-11 20:25:00,
2013-03-11 16:30:00,70.0,56.4,30.03,South,184,3.0,11.0,62,0.00,CLR,,0.00,WeatherDisplay:10.37,2013-03-11 20:30:00,
2013-03-11 16:35:00,69.6,56.9,30.03,South,180,2.0,11.0,64,0.00,CLR,,0.00,WeatherDisplay:10.37,2013-03-11 20:35:00,
2013-03-11 16:40:00,69.3,56.6,30.03,South,191,2.0,9.0,64,0.00,CLR,,0.00,WeatherDisplay:10.37,2013-03-11 20:40:00,
2013-03-11 16:45:00,69.1,57.2,30.03,SSW,200,7.0,13.0,66,0.00,CLR,,0.00,WeatherDisplay:10.37,2013-03-11 20:45:00,
2013-03-11 16:50:00,68.7,57.3,30.03,SSW,211,5.0,10.0,67,0.00,CLR,,0.00,WeatherDisplay:10.37,2013-03-11 20:50:00,
2013-03-11 16:55:00,68.5,57.6,30.03,SSW,209,2.0,8.0,68,0.00,CLR,,0.00,WeatherDisplay:10.37,2013-03-11 20:55:00,
2013-03-11 17:00:00,68.4,58.2,30.02,SSW,213,3.0,8.0,70,0.00,CLR,,0.00,WeatherDisplay:10.37,2013-03-11 21:00:00,
2013-03-11 17:05:00,68.0,58.3,30.03,SW,228,2.0,8.0,71,0.00,CLR,,0.00,WeatherDisplay:10.37,2013-03-11 21:05:00,
2013-03-11 17:15:00,67.6,58.7,30.04,SSW,199,0.0,7.0,73,0.00,CLR,,0.00,WeatherDisplay:10.37,2013-03-11 21:15:00,
2013-03-11 17:20:00,67.4,59.2,30.04,SW,218,2.0,5.0,75,0.00,CLR,,0.00,WeatherDisplay:10.37,2013-03-11 21:20:00,
2013-03-11 17:25:00,66.9,59.8,30.03,SSW,210,1.0,5.0,78,0.00,CLR,,0.00,WeatherDisplay:10.37,2013-03-11 21:25:00,
2013-03-11 17:30:00,66.4,60.4,30.03,SSW,206,1.0,6.0,81,0.00,CLR,,0.00,WeatherDisplay:10.37,2013-03-11 21:30:00,
2013-03-11 17:35:00,66.2,60.9,30.03,SSW,194,2.0,5.0,83,0.00,CLR,,0.00,WeatherDisplay:10.37,2013-03-11 21:35:00,
2013-03-11 17:45:00,66.0,60.7,30.03,SSW,201,1.0,5.0,83,0.00,CLR,,0.00,WeatherDisplay:10.37,2013-03-11 21:45:00,
2013-03-11 17:50:00,66.0,60.7,30.03,SSW,194,1.0,4.0,83,0.00,CLR,,0.00,WeatherDisplay:10.37,2013-03-11 21:50:00,
2013-03-11 17:55:00,66.2,60.9,30.02,South,183,1.0,5.0,83,0.00,CLR,,0.00,WeatherDisplay:10.37,2013-03-11 21:55:00,
2013-03-11 18:00:00,66.4,60.7,30.02,SSE,162,1.0,2.0,82,0.00,CLR,,0.00,WeatherDisplay:10.37,2013-03-11 22:00:00,
2013-03-11 18:05:00,66.6,60.9,30.02,South,169,2.0,6.0,82,0.00,CLR,,0.00,WeatherDisplay:10.37,2013-03-11 22:05:00,
2013-03-11 18:10:00,66.6,60.5,30.02,SSW,194,2.0,6.0,81,0.00,CLR,,0.00,WeatherDisplay:10.37,2013-03-11 22:10:00,
2013-03-11 18:15:00,66.6,60.5,30.02,South,183,2.0,6.0,81,0.00,CLR,,0.00,WeatherDisplay:10.37,2013-03-11 22:15:00,
2013-03-11 18:25:00,66.4,60.4,30.02,SSW,196,1.0,2.0,81,0.00,CLR,,0.00,WeatherDisplay:10.37,2013-03-11 22:25:00,
2013-03-11 18:30:00,66.4,60.4,30.02,SSW,195,1.0,4.0,81,0.00,CLR,,0.00,WeatherDisplay:10.37,2013-03-11 22:30:00,
2013-03-11 18:35:00,66.3,60.3,30.02,SE,140,2.0,5.0,81,0.00,CLR,,0.00,WeatherDisplay:10.37,2013-03-11 22:35:00,
2013-03-11 18:40:00,66.2,60.2,30.02,SSE,161,1.0,5.0,81,0.00,CLR,,0.00,WeatherDisplay:10.37,2013-03-11 22:40:00,
2013-03-11 18:45:00,66.0,60.0,30.01,South,179,1.0,5.0,81,0.00,CLR,,0.00,WeatherDisplay:10.37,2013-03-11 22:45:00,
2013-03-11 18:50:00,65.8,59.8,30.02,South,173,1.0,4.0,81,0.00,CLR,,0.00,WeatherDisplay:10.37,2013-03-11 22:50:00,
2013-03-11 18:55:00,65.6,60.0,30.02,South,183,1.0,5.0,82,0.00,CLR,,0.00,WeatherDisplay:10.37,2013-03-11 22:55:00,
2013-03-11 19:00:00,65.3,59.7,30.02,SSE,163,1.0,5.0,82,0.00,CLR,,0.00,WeatherDisplay:10.37,2013-03-11 23:00:00,
2013-03-11 19:05:00,65.0,59.7,30.01,SSE,166,1.0,4.0,83,0.00,CLR,,0.00,WeatherDisplay:10.37,2013-03-11 23:05:00,
2013-03-11 19:10:00,64.8,59.5,30.00,South,173,1.0,4.0,83,0.00,CLR,,0.00,WeatherDisplay:10.37,2013-03-11 23:10:00,
2013-03-11 19:15:00,64.4,59.5,30.01,South,183,1.0,3.0,84,0.00,CLR,,0.00,WeatherDisplay:10.37,2013-03-11 23:15:00,
2013-03-11 19:20:00,64.2,59.3,30.01,South,188,1.0,3.0,84,0.00,CLR,,0.00,WeatherDisplay:10.37,2013-03-11 23:20:00,
2013-03-11 19:25:00,63.9,59.3,30.00,South,173,2.0,6.0,85,0.00,CLR,,0.00,WeatherDisplay:10.37,2013-03-11 23:25:00,
2013-03-11 19:30:00,63.8,59.2,30.01,South,176,1.0,5.0,85,0.00,CLR,,0.00,WeatherDisplay:10.37,2013-03-11 23:30:00,
2013-03-11 19:35:00,63.5,59.2,30.01,South,174,1.0,6.0,86,0.00,CLR,,0.00,WeatherDisplay:10.37,2013-03-11 23:35:00,
2013-03-11 19:40:00,63.3,59.1,30.00,South,173,1.0,3.0,86,0.00,CLR,,0.00,WeatherDisplay:10.37,2013-03-11 23:40:00,
2013-03-11 19:45:00,63.0,58.7,30.00,South,185,0.0,3.0,86,0.00,CLR,,0.00,WeatherDisplay:10.37,2013-03-11 23:45:00,
2013-03-11 19:50:00,62.8,58.9,30.00,SSW,193,1.0,2.0,87,0.00,CLR,,0.00,WeatherDisplay:10.37,2013-03-11 23:50:00,
2013-03-11 19:55:00,62.5,58.9,30.00,SSW,192,0.0,5.0,88,0.00,CLR,,0.00,WeatherDisplay:10.37,2013-03-11 23:55:00,
2013-03-11 20:05:00,61.9,58.6,30.01,SW,216,0.0,2.0,89,0.00,CLR,,0.00,WeatherDisplay:10.37,2013-03-12 00:05:00,
2013-03-11 20:10:00,61.7,58.4,30.01,SSW,197,1.0,3.0,89,0.00,CLR,,0.00,WeatherDisplay:10.37,2013-03-12 00:10:00,
2013-03-11 20:20:00,61.3,58.7,30.01,South,190,1.0,2.0,91,0.00,CLR,,0.00,WeatherDisplay:10.37,2013-03-12 00:20:00,
2013-03-11 20:25:00,61.2,58.5,30.01,South,188,1.0,3.0,91,0.00,CLR,,0.00,WeatherDisplay:10.37,2013-03-12 00:25:00,
2013-03-11 20:30:00,61.2,58.8,30.00,South,177,0.0,3.0,92,0.00,CLR,,0.00,WeatherDisplay:10.37,2013-03-12 00:30:00,
2013-03-11 20:35:00,61.2,59.1,30.00,SSE,168,1.0,2.0,93,0.00,CLR,,0.00,WeatherDisplay:10.37,2013-03-12 00:35:00,
2013-03-11 20:40:00,61.2,59.1,30.00,SSE,168,2.0,6.0,93,0.00,CLR,,0.00,WeatherDisplay:10.37,2013-03-12 00:40:00,
2013-03-11 20:45:00,61.3,59.3,29.99,South,181,2.0,6.0,93,0.00,CLR,,0.00,WeatherDisplay:10.37,2013-03-12 00:45:00,
2013-03-11 20:50:00,61.3,59.6,29.99,South,179,2.0,7.0,94,0.00,CLR,,0.00,WeatherDisplay:10.37,2013-03-12 00:50:00,
2013-03-11 20:55:00,61.3,59.6,29.99,South,182,1.0,5.0,94,0.00,CLR,,0.00,WeatherDisplay:10.37,2013-03-12 00:55:00,
2013-03-11 21:05:00,61.2,59.8,29.98,South,190,2.0,6.0,95,0.00,CLR,,0.00,WeatherDisplay:10.37,2013-03-12 01:05:00,
2013-03-11 21:10:00,61.3,59.9,29.97,South,177,1.0,5.0,95,0.00,CLR,,0.00,WeatherDisplay:10.37,2013-03-12 01:10:00,
2013-03-11 21:15:00,61.3,59.9,29.96,South,183,1.0,4.0,95,0.00,CLR,,0.00,WeatherDisplay:10.37,2013-03-12 01:15:00,
2013-03-11 21:20:00,61.5,60.4,29.95,SSW,195,2.0,8.0,96,0.00,CLR,,0.00,WeatherDisplay:10.37,2013-03-12 01:20:00,
2013-03-11 21:25:00,61.7,60.3,29.96,SSW,198,2.0,8.0,95,0.00,CLR,,0.00,WeatherDisplay:10.37,2013-03-12 01:25:00,
2013-03-11 21:30:00,62.1,60.3,29.97,SSW,193,3.0,8.0,94,0.00,CLR,,0.00,WeatherDisplay:10.37,2013-03-12 01:30:00,
2013-03-11 21:40:00,62.6,60.5,29.98,SSW,198,1.0,6.0,93,0.00,CLR,,0.00,WeatherDisplay:10.37,2013-03-12 01:40:00,
2013-03-11 21:45:00,62.6,60.2,29.98,SSW,199,1.0,6.0,92,0.00,CLR,,0.00,WeatherDisplay:10.37,2013-03-12 01:45:00,
2013-03-11 21:50:00,62.6,60.2,29.98,SSW,208,1.0,2.0,92,0.00,CLR,,0.00,WeatherDisplay:10.37,2013-03-12 01:50:00,
2013-03-11 21:55:00,62.6,59.9,29.98,South,189,1.0,5.0,91,0.00,CLR,,0.00,WeatherDisplay:10.37,2013-03-12 01:55:00,
2013-03-11 22:00:00,62.8,60.1,29.97,SSW,193,1.0,4.0,91,0.00,CLR,,0.00,WeatherDisplay:10.37,2013-03-12 02:00:00,
2013-03-11 22:05:00,62.8,60.1,29.97,SW,218,1.0,3.0,91,0.00,CLR,,0.00,WeatherDisplay:10.37,2013-03-12 02:05:00,
2013-03-11 22:10:00,63.0,60.3,29.98,SSW,209,1.0,4.0,91,0.00,CLR,,0.00,WeatherDisplay:10.37,2013-03-12 02:10:00,
2013-03-11 22:15:00,63.1,60.5,29.97,SSW,194,1.0,6.0,91,0.00,CLR,,0.00,WeatherDisplay:10.37,2013-03-12 02:15:00,
2013-03-11 22:20:00,63.7,60.7,29.97,SSW,195,1.0,6.0,90,0.00,CLR,,0.00,WeatherDisplay:10.37,2013-03-12 02:20:00,
2013-03-11 22:25:00,64.0,60.7,29.97,South,185,2.0,6.0,89,0.00,CLR,,0.00,WeatherDisplay:10.37,2013-03-12 02:25:00,
2013-03-11 22:30:00,64.2,60.6,29.97,South,186,2.0,7.0,88,0.00,CLR,,0.00,WeatherDisplay:10.37,2013-03-12 02:30:00,
2013-03-11 22:35:00,64.6,60.6,29.97,South,183,2.0,7.0,87,0.00,CLR,,0.00,WeatherDisplay:10.37,2013-03-12 02:35:00,
2013-03-11 22:40:00,64.6,60.6,29.97,South,186,3.0,8.0,87,0.00,CLR,,0.00,WeatherDisplay:10.37,2013-03-12 02:40:00,
2013-03-11 22:45:00,64.8,60.8,29.97,SSW,199,2.0,8.0,87,0.00,CLR,,0.00,WeatherDisplay:10.37,2013-03-12 02:45:00,
2013-03-11 22:50:00,64.8,60.5,29.97,SSW,197,3.0,8.0,86,0.00,CLR,,0.00,WeatherDisplay:10.37,2013-03-12 02:50:00,
2013-03-11 23:00:00,64.8,60.8,29.97,SSW,198,5.0,11.0,87,0.00,CLR,,0.00,WeatherDisplay:10.37,2013-03-12 03:00:00,
2013-03-11 23:05:00,64.8,60.8,29.97,SSW,193,6.0,8.0,87,0.00,CLR,,0.00,WeatherDisplay:10.37,2013-03-12 03:05:00,
2013-03-11 23:10:00,64.8,61.4,29.96,South,187,3.0,9.0,89,0.00,CLR,,0.00,WeatherDisplay:10.37,2013-03-12 03:10:00,
2013-03-11 23:15:00,64.4,61.8,29.96,SSW,199,5.0,10.0,91,0.00,CLR,,0.00,WeatherDisplay:10.37,2013-03-12 03:15:00,
2013-03-11 23:20:00,64.4,62.0,29.96,SSW,192,3.0,10.0,92,0.00,CLR,,0.00,WeatherDisplay:10.37,2013-03-12 03:20:00,
2013-03-11 23:25:00,64.2,62.2,29.95,SSW,192,3.0,10.0,93,0.00,CLR,,0.00,WeatherDisplay:10.37,2013-03-12 03:25:00,
2013-03-11 23:30:00,64.2,62.5,29.94,South,180,3.0,10.0,94,0.00,CLR,,0.00,WeatherDisplay:10.37,2013-03-12 03:30:00,
2013-03-11 23:35:00,64.1,62.6,29.95,SSW,193,3.0,7.0,95,0.00,CLR,,0.00,WeatherDisplay:10.37,2013-03-12 03:35:00,
2013-03-11 23:40:00,63.9,62.8,29.94,SSW,200,5.0,12.0,96,0.00,CLR,,0.00,WeatherDisplay:10.37,2013-03-12 03:40:00,
2013-03-11 23:45:00,64.0,63.1,29.95,SSW,192,6.0,11.0,97,0.00,CLR,,0.00,WeatherDisplay:10.37,2013-03-12 03:45:00,
2013-03-11 23:50:00,63.9,63.3,29.94,South,191,2.0,10.0,98,0.00,CLR,,0.00,WeatherDisplay:10.37,2013-03-12 03:50:00,
2013-03-11 23:55:00,63.7,63.4,29.94,SSW,192,3.0,12.0,99,0.00,CLR,,0.00,WeatherDisplay:10.37,2013-03-12 03:55:00,